Hourly Weather Kozy

Today, 25 October, Sunday

Time Temperature Precipitation Wind Pressure Humidity
00:00 +10°C° 0 mm 3 mps 746 mmHg 90%
01:00 +10°C° 0 mm 3 mps 746 mmHg 91%
02:00 +10°C° 0 mm 3 mps 746 mmHg 91%
03:00 +10°C° 0 mm 3 mps 746 mmHg 92%
04:00 +10°C° 0 mm 3 mps 746 mmHg 92%
05:00 +10°C° 0 mm 3 mps 746 mmHg 92%
06:00 +8°C° 0 mm 4 mps 746 mmHg 92%
07:00 +8°C° 0 mm 4 mps 746 mmHg 92%
08:00 +10°C° 0 mm 4 mps 746 mmHg 87%
09:00 +12°C° 0 mm 5 mps 746 mmHg 81%
10:00 +13°C° 0 mm 5 mps 746 mmHg 75%
11:00 +14°C° 0 mm 5 mps 746 mmHg 72%
12:00 +14°C° 0 mm 5 mps 746 mmHg 69%
13:00 +15°C° 0 mm 5 mps 745 mmHg 66%
14:00 +14°C° 0 mm 5 mps 745 mmHg 69%
15:00 +14°C° 0 mm 5 mps 744 mmHg 71%
16:00 +13°C° 0 mm 4 mps 744 mmHg 74%
17:00 +13°C° 0 mm 5 mps 744 mmHg 77%
18:00 +12°C° 0 mm 5 mps 744 mmHg 79%
19:00 +12°C° 0 mm 5 mps 744 mmHg 82%
20:00 +12°C° 0 mm 5 mps 744 mmHg 83%
21:00 +12°C° 0 mm 5 mps 744 mmHg 84%
22:00 +12°C° 0 mm 5 mps 744 mmHg 86%
23:00 +10°C° 0 mm 5 mps 743 mmHg 86%

Tomorrow, 26 October, Monday

Time Temperature Precipitation Wind Pressure Humidity
00:00 +10°C° 0 mm 5 mps 743 mmHg 85%
01:00 +10°C° 0 mm 5 mps 743 mmHg 85%
02:00 +10°C° 0 mm 5 mps 743 mmHg 87%
03:00 +9°C° 0 mm 5 mps 743 mmHg 88%
04:00 +10°C° 0 mm 4 mps 742 mmHg 90%
05:00 +8°C° 0 mm 4 mps 742 mmHg 91%
06:00 +8°C° 0 mm 4 mps 742 mmHg 92%
07:00 +8°C° 0 mm 4 mps 742 mmHg 94%
08:00 +10°C° 0 mm 4 mps 742 mmHg 90%
09:00 +11°C° 0 mm 3 mps 742 mmHg 86%
10:00 +11°C° 0 mm 3 mps 742 mmHg 83%
11:00 +12°C° 0 mm 3 mps 742 mmHg 80%
12:00 +13°C° 0 mm 3 mps 741 mmHg 77%
13:00 +14°C° 0 mm 4 mps 741 mmHg 75%
14:00 +13°C° 0 mm 3 mps 741 mmHg 77%
15:00 +13°C° 0 mm 3 mps 741 mmHg 80%
16:00 +12°C° 0 mm 3 mps 741 mmHg 82%
17:00 +12°C° 0 mm 3 mps 741 mmHg 83%
18:00 +12°C° 0 mm 3 mps 741 mmHg 84%
19:00 +13°C° 0 mm 2 mps 741 mmHg 86%
20:00 +13°C° 0.2 mm 2 mps 741 mmHg 87%
21:00 +12°C° 0.2 mm 3 mps 741 mmHg 88%
22:00 +12°C° 0.2 mm 3 mps 741 mmHg 89%
23:00 +12°C° 0.1 mm 2 mps 742 mmHg 90%

Day after tomorrow, 27 October, Tuesday

Time Temperature Precipitation Wind Pressure Humidity
00:00 +12°C° 0.1 mm 2 mps 742 mmHg 92%
01:00 +12°C° 0.1 mm 2 mps 742 mmHg 93%
02:00 +12°C° 0 mm 2 mps 742 mmHg 93%
03:00 +12°C° 0 mm 2 mps 742 mmHg 93%
04:00 +10°C° 0 mm 2 mps 742 mmHg 93%
05:00 +11°C° 0 mm 1 mps 742 mmHg 93%
06:00 +11°C° 0 mm 1 mps 743 mmHg 94%
07:00 +11°C° 0 mm 1 mps 743 mmHg 94%
08:00 +11°C° 0 mm 1 mps 743 mmHg 90%
09:00 +11°C° 0 mm 0 mps 743 mmHg 87%
10:00 +11°C° 0 mm 0 mps 744 mmHg 84%
11:00 +12°C° 0 mm 1 mps 744 mmHg 84%
12:00 +12°C° 0 mm 1 mps 744 mmHg 84%
13:00 +12°C° 0 mm 1 mps 744 mmHg 84%
14:00 +12°C° 0.8 mm 1 mps 743 mmHg 87%
15:00 +12°C° 0.8 mm 1 mps 743 mmHg 90%
16:00 +11°C° 0.8 mm 1 mps 743 mmHg 93%
17:00 +10°C° 1.1 mm 2 mps 743 mmHg 92%
18:00 +10°C° 1.1 mm 2 mps 743 mmHg 91%
19:00 +9°C° 1.1 mm 2 mps 743 mmHg 91%
20:00 +9°C° 0.2 mm 2 mps 744 mmHg 90%
21:00 +9°C° 0.2 mm 2 mps 744 mmHg 89%
22:00 +9°C° 0.2 mm 3 mps 744 mmHg 88%
23:00 +9°C° 0 mm 3 mps 744 mmHg 89%

28 October, Wednesday

Time Temperature Precipitation Wind Pressure Humidity
00:00 +8°C° 0 mm 3 mps 744 mmHg 90%
01:00 +8°C° 0 mm 3 mps 744 mmHg 90%
02:00 +8°C° 0 mm 3 mps 745 mmHg 91%
03:00 +8°C° 0 mm 3 mps 745 mmHg 91%
04:00 +6°C° 0 mm 4 mps 745 mmHg 91%
05:00 +6°C° 0 mm 4 mps 745 mmHg 91%
06:00 +6°C° 0 mm 4 mps 745 mmHg 90%
07:00 +6°C° 0 mm 4 mps 745 mmHg 89%
08:00 +7°C° 0 mm 5 mps 745 mmHg 83%
09:00 +8°C° 0 mm 6 mps 745 mmHg 77%
10:00 +9°C° 0 mm 6 mps 745 mmHg 72%
11:00 +10°C° 0 mm 6 mps 745 mmHg 68%
12:00 +11°C° 0 mm 6 mps 745 mmHg 64%
13:00 +11°C° 0 mm 6 mps 745 mmHg 60%
14:00 +11°C° 0 mm 6 mps 745 mmHg 63%
15:00 +10°C° 0 mm 5 mps 745 mmHg 66%
16:00 +11°C° 0 mm 4 mps 745 mmHg 69%
17:00 +10°C° 0 mm 4 mps 745 mmHg 71%
18:00 +10°C° 0 mm 4 mps 745 mmHg 72%
19:00 +10°C° 0 mm 4 mps 744 mmHg 74%
20:00 +10°C° 0 mm 4 mps 744 mmHg 75%
21:00 +8°C° 0 mm 4 mps 745 mmHg 75%
22:00 +8°C° 0 mm 4 mps 745 mmHg 75%
23:00 +8°C° 0 mm 4 mps 744 mmHg 78%

29 October, Thursday

Time Temperature Precipitation Wind Pressure Humidity
00:00 +8°C° 0 mm 4 mps 744 mmHg 81%
01:00 +7°C° 0 mm 4 mps 744 mmHg 83%
02:00 +7°C° 0 mm 4 mps 744 mmHg 83%
03:00 +7°C° 0 mm 4 mps 744 mmHg 83%
04:00 +7°C° 0 mm 5 mps 744 mmHg 83%
05:00 +7°C° 0 mm 4 mps 744 mmHg 84%
06:00 +7°C° 0 mm 4 mps 744 mmHg 84%
07:00 +7°C° 0 mm 4 mps 744 mmHg 85%
08:00 +7°C° 0.2 mm 5 mps 744 mmHg 85%
09:00 +7°C° 0.2 mm 5 mps 744 mmHg 85%
10:00 +8°C° 0.2 mm 5 mps 744 mmHg 86%
11:00 +8°C° 0.4 mm 5 mps 744 mmHg 83%
12:00 +9°C° 0.4 mm 5 mps 744 mmHg 81%
13:00 +9°C° 0.4 mm 5 mps 745 mmHg 78%
14:00 +9°C° 0.1 mm 5 mps 745 mmHg 77%
15:00 +10°C° 0.1 mm 4 mps 745 mmHg 76%
16:00 +10°C° 0.1 mm 4 mps 746 mmHg 75%
17:00 +8°C° 0 mm 4 mps 746 mmHg 77%
18:00 +8°C° 0 mm 4 mps 746 mmHg 79%
19:00 +7°C° 0 mm 4 mps 747 mmHg 81%
20:00 +7°C° 0 mm 4 mps 747 mmHg 82%
21:00 +7°C° 0 mm 4 mps 747 mmHg 82%
22:00 +7°C° 0 mm 4 mps 747 mmHg 82%
23:00 +7°C° 0 mm 5 mps 747 mmHg 82%

30 October, Friday

Time Temperature Precipitation Wind Pressure Humidity
00:00 +7°C° 0 mm 5 mps 747 mmHg 82%
01:00 +7°C° 0 mm 5 mps 747 mmHg 82%
02:00 +7°C° 0 mm 6 mps 747 mmHg 82%
03:00 +8°C° 0 mm 6 mps 746 mmHg 81%
04:00 +8°C° 0 mm 7 mps 746 mmHg 80%
05:00 +8°C° 0.2 mm 7 mps 746 mmHg 82%
06:00 +9°C° 0.2 mm 7 mps 746 mmHg 84%
07:00 +9°C° 0.2 mm 7 mps 746 mmHg 86%
08:00 +10°C° 0 mm 7 mps 746 mmHg 86%
09:00 +10°C° 0 mm 7 mps 746 mmHg 86%
10:00 +11°C° 0 mm 7 mps 746 mmHg 85%
11:00 +11°C° 0.1 mm 7 mps 746 mmHg 85%
12:00 +11°C° 0.1 mm 7 mps 747 mmHg 84%
13:00 +12°C° 0.1 mm 7 mps 747 mmHg 83%
14:00 +12°C° 0.1 mm 7 mps 747 mmHg 84%
15:00 +11°C° 0.1 mm 6 mps 747 mmHg 84%
16:00 +11°C° 0.1 mm 6 mps 747 mmHg 85%
17:00 +11°C° 0 mm 6 mps 748 mmHg 83%
18:00 +11°C° 0 mm 6 mps 748 mmHg 82%
19:00 +13°C° 0 mm 6 mps 748 mmHg 80%
20:00 +12°C° 0 mm 5 mps 748 mmHg 80%
21:00 +12°C° 0 mm 5 mps 748 mmHg 80%
22:00 +12°C° 0 mm 5 mps 748 mmHg 80%
23:00 +12°C° 0 mm 5 mps 748 mmHg 81%
Show more